sat.trackr.live / text

‹ back to catalog

RASSVET-3 2

NORAD 68361 · 2026-061B

PAYLOAD ACTIVE UNKNOWN

§ Identity

Operator
Country
CIS
Launch date
2026-03-23
Launch site
PLMSC
Launch vehicle
Mass (kg)
RCS (m²)

External: N2YO · Heavens-Above · Gunter

§ Orbital elements

Epoch: 2026-09-18T01:59:38.162976Z

Period
94.81 min
Inclination
82.2886°
Eccentricity
0.0004515
Mean motion
15.18840694 rev/d
Perigee alt
506.2 km
Apogee alt
512.5 km
Semi-major
6,887.5 km
B*
7.7795e-5
RAAN
275.9707°
Arg perigee
132.9949°
Mean anomaly
227.1664°
Rev number
2,775

§ Raw data

RASSVET-3 21 68361U 26061B   26261.08308059  .00001651  00000+0  77795-4 0  99902 68361  82.2886 275.9707 0004515 132.9949 227.1664 15.18840694 27754

JSON: /api/v1/satellites/68361 · /tle

For live sub-satellite position, see the globe view (requires WebGL).

§ Visibility from observer

Set your observer location to see the next 7 days of passes ≥ 10°. The values pass through the URL so the page stays shareable.

No JS? Fill the form by hand. The geolocation button needs JavaScript.